This demonstration page uses our WeatherBlox Daily Observations layout. Learn more.

Left ArrowRight Arrow

Hourly Observations for December 18, 2020

Temp ( °F °C ) Dew Point ( °F °C ) Humidity (%) Winds ( mph kmh ) Pressure ( in mb ) Visibility ( mi km ) Precip ( " mm )
12:52 am 00:52 Mostly Cloudy 30 -1.1 25 -3.9 82 82 SE 12 19 30.04 1017 10 16 0.00 0.00
1:52 am 01:52 Mostly Cloudy 29 -1.7 25 -3.9 85 85 SE 12 19 30.03 1017 10 16 0.00 0.00
2:52 am 02:52 Mostly Cloudy 31 -0.6 26 -3.3 82 82 SSE 12 19 30.01 1016 10 16 0.00 0.00
3:52 am 03:52 Mostly Cloudy 32 0 27 -2.8 82 82 SSE 12 19 29.99 1016 10 16 0.00 0.00
4:52 am 04:52 Cloudy 34 1.1 28 -2.2 79 79 SSE 14 22 29.98 1015 10 16 0.00 0.00
5:52 am 05:52 Cloudy 36 2.2 30 -1.1 79 79 SSE 14 22 29.95 1014 10 16 0.00 0.00
6:52 am 06:52 Cloudy 36 2.2 30 -1.1 79 79 SSE 16 26 29.92 1013 10 16 0.00 0.00
7:52 am 07:52 Mostly Cloudy 37 2.8 30 -1.1 76 76 SSE 21 33 29.90 1013 10 16 0.00 0.00
8:52 am 08:52 Mostly Cloudy 37 2.8 30 -1.1 76 76 SSE 17 28 29.88 1012 10 16 0.00 0.00
9:52 am 09:52 Partly Cloudy 38 3.3 31 -0.6 76 76 SSE 6 9 29.91 1013 10 16 0.00 0.00
10:52 am 10:52 Partly Cloudy 41 5 31 -0.6 67 67 SSE 18 30 29.90 1013 10 16 0.00 0.00
11:52 am 11:52 Partly Cloudy 41 5 32 0 70 70 S 16 26 29.87 1012 10 16 0.00 0.00
12:52 pm 12:52 Mostly Cloudy 43 6.1 33 0.6 68 68 S 10 17 29.85 1011 10 16 0.00 0.00
1:52 pm 13:52 Mostly Cloudy 46 7.8 33 0.6 61 61 S 12 19 29.84 1010 10 16 0.00 0.00
2:52 pm 14:52 Mostly Cloudy 47 8.3 33 0.6 59 59 SW 7 11 29.85 1011 10 16 0.00 0.00
3:52 pm 15:52 Mostly Cloudy 46 7.8 32 0 58 58 W 8 13 29.88 1012 10 16 0.00 0.00
4:52 pm 16:52 Mostly Cloudy 42 5.6 32 0 68 68 WNW 7 11 29.92 1013 10 16 0.00 0.00
5:52 pm 17:52 Mostly Cloudy 37 2.8 30 -1.1 76 76 WNW 5 7 29.94 1014 10 16 0.00 0.00
6:52 pm 18:52 Mostly Cloudy 35 1.7 31 -0.6 85 85 NNW 6 9 29.97 1015 10 16 0.00 0.00
7:52 pm 19:52 Mostly Cloudy 38 3.3 30 -1.1 73 73 NNW 17 28 29.99 1016 10 16 0.00 0.00
8:52 pm 20:52 Mostly Cloudy 37 2.8 30 -1.1 76 76 NNW 17 28 30.02 1017 10 16 0.00 0.00
9:52 pm 21:52 Mostly Cloudy 35 1.7 29 -1.7 78 78 NW 21 33 30.05 1018 10 16 0.00 0.00
10:52 pm 22:52 Partly Cloudy 33 0.6 28 -2.2 82 82 NNW 20 31 30.07 1018 10 16 0.00 0.00
11:52 pm 23:52 Mostly Cloudy 32 0 28 -2.2 85 85 NNW 17 28 30.09 1019 10 16 0.00 0.00

Powered by AerisWeather